IZ1MEU-13 Weather Reports


time (UTC)temp
F
wind
direction
speed
knots
gust
knots
rain 1hr
in
rain 24hr
in
rain mn
in
humidity
%
barometer
mb
20260506044437 51 0.0 0.0 0.00 0.00 0.00 66 1010.7
20260506042432 51 0.0 0.0 0.00 0.00 0.00 66 1010.9
20260506040428 52 0.0 0.0 0.00 0.00 0.00 66 1011.0
20260506034423 51 0.0 0.0 0.00 0.00 0.00 66 1011.2
20260506032418 51 0.0 0.0 0.00 0.00 0.00 66 1011.2
20260506030413 51 0.0 0.0 0.00 0.00 0.00 65 1011.6
20260506024409 51 0.0 0.0 0.00 0.00 0.00 66 1011.5
20260506022404 51 0.0 0.0 0.00 0.00 0.00 66 1011.9
20260506020400 50 0.0 0.0 0.00 0.00 0.00 67 1012.1
20260506014356 51 0.0 0.0 0.00 0.00 0.00 67 1012.0
20260506012351 51 0.0 0.0 0.00 0.00 0.00 65 1012.1
20260506010347 52 0.0 0.0 0.00 0.00 0.00 64 1012.5
20260506004343 52 0.0 0.0 0.00 0.00 0.00 64 1013.0
20260506002338 52 0.0 0.0 0.00 0.00 0.00 63 1013.4
20260506000334 52 0.0 0.0 0.00 0.00 0.00 63 1013.6
20260505234330 52 0.0 0.0 0.00 0.00 0.00 63 1014.0
20260505232326 52 0.0 0.0 0.00 0.00 0.00 63 1014.0
20260505230321 52 0.0 0.0 0.00 0.00 0.00 63 1013.9
20260505224317 52 0.0 0.0 0.00 0.00 0.00 63 1014.1
20260505222312 52 0.0 0.0 0.00 0.00 0.00 63 1014.4
20260505220308 52 0.0 0.0 0.00 0.00 0.00 63 1014.4
20260505214303 52 0.0 0.0 0.00 0.00 0.00 64 1014.4
20260505212259 52 0.0 0.0 0.00 0.00 0.00 63 1014.8
20260505210255 52 0.0 0.0 0.00 0.00 0.00 64 1014.7
20260505204250 52 0.0 0.0 0.00 0.00 0.00 64 1014.9
20260505202246 52 0.0 0.0 0.00 0.00 0.00 63 1014.9
20260505200241 52 0.0 0.0 0.00 0.00 0.00 63 1014.8
20260505194237 52 0.0 0.0 0.00 0.00 0.00 63 1014.8
20260505192233 52 0.0 0.0 0.00 0.00 0.00 64 1014.5
20260505190228 52 0.0 0.0 0.00 0.00 0.00 63 1014.5
20260505184224 53 0.0 0.0 0.00 0.00 0.00 62 1014.5
20260505182219 54 0.0 0.0 0.00 0.00 0.00 61 1014.5
20260505180215 54 0.0 0.0 0.00 0.00 0.00 61 1014.5
20260505174210 54 0.0 0.0 0.00 0.00 0.00 62 1014.4
20260505173606 54 0.0 0.0 0.00 0.00 0.00 61 1014.5
20260505171601 54 0.0 0.0 0.00 0.00 0.00 61 1014.5
20260505165557 55 0.0 0.0 0.00 0.00 0.00 59 1014.5
20260505163553 55 0.0 0.0 0.00 0.00 0.00 59 1014.6
20260505161549 56 0.0 0.0 0.00 0.00 0.00 58 1014.6
20260505151536 57 0.0 0.0 0.00 0.00 0.00 58 1014.7
20260505123505 55 0.0 0.0 0.00 0.00 0.00 60 1015.5
20260505121501 54 0.0 0.0 0.00 0.00 0.00 59 1015.5
20260505115457 56 0.0 0.0 0.00 0.00 0.00 57 1015.6
20260505113453 56 0.0 0.0 0.00 0.00 0.00 58 1015.5
20260505111450 56 0.0 0.0 0.00 0.00 0.00 58 1015.7
20260505101438 53 0.0 0.0 0.00 0.00 0.00 61 1015.9
20260505095435 52 0.0 0.0 0.00 0.00 0.00 61 1016.0
20260505093431 52 0.0 0.0 0.00 0.00 0.00 61 1016.0
20260505091427 52 0.0 0.0 0.00 0.00 0.00 60 1015.7
20260505085423 51 0.0 0.0 0.00 0.00 0.00 61 1015.7
20260505083415 51 0.0 0.0 0.00 0.00 0.00 61 1015.6
20260505081410 51 0.0 0.0 0.00 0.00 0.00 62 1015.7
20260505075406 50 0.0 0.0 0.00 0.00 0.00 62 1015.7
20260505073402 50 0.0 0.0 0.00 0.00 0.00 63 1015.5
20260505071358 50 0.0 0.0 0.00 0.00 0.00 63 1015.5
20260505065353 50 0.0 0.0 0.00 0.00 0.00 64 1015.4
20260505063349 50 0.0 0.0 0.00 0.00 0.00 64 1015.4
20260505061345 50 0.0 0.0 0.00 0.00 0.00 63 1015.3
20260505055341 49 0.0 0.0 0.00 0.00 0.00 64 1015.3
20260505053336 49 0.0 0.0 0.00 0.00 0.00 64 1015.1
20260505051332 50 0.0 0.0 0.00 0.00 0.00 63 1015.0